Date String (YYYY-MM-DD hh:mm:ss) UTC,Instrument flags,Ambient pressure (hPa),Sample flow (lpm),Bypass flow (lpm),Sample temperature (°C),Ambient temperature (°C),ASC tube jacket temperature (°C),LED temperature (°C),Box temperature (°C),Sample RH (%),Span deviation,Mass concentration (μg/m³),Mass concentration (μg/m³),Mass concentration (μg/m³)
DateTimeUTC,F1_M11,P_M11,Q1_M11,Q2_M11,T1_M11,T2_M11,T3_M11,T4_M11,T5_M11,U1_M11,ZSPAN_M11,X0_M11,X2_M11,X1_M11
2022-04-04 06:00:00,,0823.2,5.00,0.00,25.3,24.4,00.0,34.3,27.1,11.8,0000.0,0018.14,0006.31,0004.49
2022-04-04 06:01:00,,0823.2,5.00,0.00,25.3,24.3,00.0,34.3,27.1,11.8,0000.0,0018.12,0006.36,0004.48
2022-04-04 06:02:00,,0823.3,5.01,0.00,25.3,24.3,00.0,34.3,27.1,11.8,0000.0,0017.92,0006.39,0004.46
2022-04-04 06:03:00,,0823.3,5.00,0.00,25.3,24.3,00.0,34.3,27.1,11.8,0000.0,0018.48,0006.42,0004.41
2022-04-04 06:04:00,,0823.3,5.01,0.00,25.3,24.3,00.0,34.3,27.1,11.8,0000.0,0017.03,0006.36,0004.37
2022-04-04 06:05:00,,0823.3,5.00,0.00,25.2,24.3,00.0,34.3,27.0,11.8,0000.0,0017.22,0006.26,0004.31
2022-04-04 06:06:00,,0823.3,5.00,0.00,25.2,24.3,00.0,34.2,27.0,11.9,0000.0,0017.50,0006.36,0004.31
2022-04-04 06:07:00,,0823.3,5.00,0.00,25.2,24.3,00.0,34.2,27.0,11.9,0000.0,0017.98,0006.42,0004.31
2022-04-04 06:08:00,,0823.3,5.00,0.00,25.2,24.3,00.0,34.2,27.0,11.9,0000.0,0018.69,0006.50,0004.34
2022-04-04 06:09:00,,0823.3,5.00,0.00,25.2,24.3,00.0,34.2,27.0,11.9,0000.0,0018.91,0006.55,0004.38
2022-04-04 06:10:00,,0823.3,5.00,0.00,25.2,24.3,00.0,34.2,27.0,11.9,0000.0,0019.64,0006.60,0004.41
2022-04-04 06:11:00,,0823.2,5.00,0.00,25.2,24.3,00.0,34.2,27.0,12.0,0000.0,0019.20,0006.63,0004.43
2022-04-04 06:12:00,,0823.3,4.99,0.00,25.2,24.3,00.0,34.2,27.0,12.0,0000.0,0019.53,0006.58,0004.43
2022-04-04 06:13:00,,0823.2,5.00,0.00,25.2,24.3,00.0,34.2,27.0,11.9,0000.0,0020.20,0006.55,0004.45
2022-04-04 06:14:00,,0823.2,5.00,0.00,25.2,24.3,00.0,34.2,27.0,11.9,0000.0,0019.38,0006.53,0004.48
2022-04-04 06:15:00,,0823.1,5.00,0.00,25.2,24.3,00.0,34.2,27.0,11.9,0000.0,0019.64,0006.53,0004.51
2022-04-04 06:16:00,,0823.1,4.99,0.00,25.2,24.3,00.0,34.2,26.9,11.9,0000.0,0019.30,0006.59,0004.54
2022-04-04 06:17:00,,0823.1,5.00,0.00,25.2,24.2,00.0,34.2,26.9,12.0,0000.0,0018.96,0006.47,0004.52
2022-04-04 06:18:00,,0823.1,4.99,0.00,25.2,24.2,00.0,34.2,26.9,12.0,0000.0,0019.24,0006.41,0004.51
2022-04-04 06:19:00,,0823.1,5.01,0.00,25.2,24.2,00.0,34.2,26.9,12.0,0000.0,0019.02,0006.39,0004.50
2022-04-04 06:20:00,,0823.0,5.00,0.00,25.1,24.2,00.0,34.2,26.9,12.0,0000.0,0018.72,0006.38,0004.50
2022-04-04 06:21:00,,0823.0,5.00,0.00,25.1,24.2,00.0,34.2,26.9,12.0,0000.0,0018.85,0006.44,0004.51
2022-04-04 06:22:00,,0823.1,5.00,0.00,25.1,24.2,00.0,34.2,26.9,12.0,0000.0,0018.59,0006.56,0004.52
2022-04-04 06:23:00,,0823.1,5.00,0.00,25.1,24.2,00.0,34.2,26.9,12.0,0000.0,0017.93,0006.56,0004.50
2022-04-04 06:24:00,,0823.1,5.00,0.00,25.1,24.2,00.0,34.2,26.9,12.0,0000.0,0017.16,0006.53,0004.50
2022-04-04 06:25:00,,0823.1,4.99,0.00,25.1,24.2,00.0,34.1,26.9,12.0,0000.0,0017.14,0006.50,0004.49
2022-04-04 06:26:00,,0823.1,5.00,0.00,25.1,24.2,00.0,34.1,26.9,12.0,0000.0,0017.73,0006.55,0004.49
2022-04-04 06:27:00,,0823.1,4.99,0.00,25.1,24.2,00.0,34.1,26.9,12.0,0000.0,0017.63,0006.55,0004.50
2022-04-04 06:28:00,,0823.1,5.00,0.00,25.1,24.2,00.0,34.1,26.9,12.0,0000.0,0018.15,0006.60,0004.53
2022-04-04 06:29:00,,0823.1,5.00,0.00,25.1,24.2,00.0,34.1,26.9,12.0,0000.0,0017.94,0006.62,0004.54
2022-04-04 06:30:00,,0823.1,5.01,0.00,25.1,24.2,00.0,34.1,26.9,12.0,0000.0,0018.34,0006.62,0004.55
2022-04-04 06:31:00,,0823.1,5.00,0.00,25.1,24.2,00.0,34.1,26.8,12.1,0000.0,0018.17,0006.62,0004.54
2022-04-04 06:32:00,,0823.1,4.99,0.00,25.1,24.2,00.0,34.1,26.8,12.1,0000.0,0018.43,0006.58,0004.54
2022-04-04 06:33:00,,0823.0,4.99,0.00,25.1,24.1,00.0,34.1,26.9,12.1,0000.0,0018.89,0006.49,0004.55
2022-04-04 06:34:00,,0823.0,5.00,0.00,25.1,24.1,00.0,34.1,26.8,12.1,0000.6,0019.00,0006.51,0004.58
2022-04-04 06:35:00,,0822.9,4.99,0.00,25.1,24.1,00.0,34.1,26.8,12.1,0001.8,0018.61,0006.54,0004.60
2022-04-04 06:36:00,,0822.9,5.01,0.00,25.1,24.1,00.0,34.1,26.9,12.1,0003.5,0018.96,0006.58,0004.62
2022-04-04 06:37:00,,0823.0,5.00,0.00,25.0,24.1,00.0,34.1,26.8,12.2,0000.0,0018.58,0006.57,0004.63
2022-04-04 06:38:00,,0822.9,4.99,0.00,25.0,24.1,00.0,34.1,26.8,12.2,0000.0,0018.87,0006.59,0004.64
2022-04-04 06:39:00,,0822.9,5.00,0.00,25.0,24.0,00.0,34.1,26.8,12.1,0000.0,0018.82,0006.63,0004.65
2022-04-04 06:40:00,,0822.9,5.00,0.00,25.0,24.0,00.0,34.1,26.8,12.1,0000.0,0019.06,0006.69,0004.65
2022-04-04 06:41:00,,0822.9,5.00,0.00,25.0,24.0,00.0,34.1,26.8,12.1,0000.0,0018.79,0006.67,0004.64
2022-04-04 06:42:00,,0823.0,5.00,0.00,25.0,24.0,00.0,34.1,26.8,12.1,0000.0,0018.25,0006.61,0004.64
2022-04-04 06:43:00,,0822.9,5.00,0.00,25.0,24.0,00.0,34.0,26.8,12.1,0000.0,0017.46,0006.60,0004.63
2022-04-04 06:44:00,,0822.9,5.01,0.00,25.0,24.0,00.0,34.0,26.8,12.1,0000.0,0017.76,0006.65,0004.62
2022-04-04 06:45:00,,0822.9,5.00,0.00,25.0,24.0,00.0,34.0,26.7,12.1,0000.0,0017.91,0006.68,0004.62
2022-04-04 06:46:00,,0822.9,5.00,0.00,25.0,24.0,00.0,34.0,26.7,12.1,0000.0,0018.21,0006.70,0004.61
2022-04-04 06:47:00,,0822.9,5.00,0.00,25.0,24.0,00.0,34.0,26.8,12.1,0000.0,0017.88,0006.72,0004.62
2022-04-04 06:48:00,,0822.9,5.00,0.00,25.0,24.0,00.0,34.0,26.7,12.1,0000.0,0017.61,0006.71,0004.62
2022-04-04 06:49:00,,0822.9,5.00,0.00,25.0,24.0,00.0,34.0,26.7,12.1,0000.0,0017.87,0006.69,0004.62
2022-04-04 06:50:00,,0823.0,5.00,0.00,25.0,24.0,00.0,34.0,26.7,12.1,0000.0,0017.84,0006.69,0004.62
2022-04-04 06:51:00,,0823.0,5.00,0.00,25.0,24.0,00.0,34.0,26.7,12.1,0000.0,0017.61,0006.66,0004.64
2022-04-04 06:52:00,,0823.0,5.00,0.00,24.9,24.0,00.0,34.0,26.7,12.1,0000.0,0017.61,0006.71,0004.66
2022-04-04 06:53:00,,0823.0,5.00,0.00,24.9,24.0,00.0,34.0,26.7,12.1,0000.0,0018.51,0006.75,0004.68
2022-04-04 06:54:00,,0822.9,5.00,0.00,24.9,24.0,00.0,34.0,26.7,12.1,0000.0,0018.37,0006.81,0004.71
2022-04-04 06:55:00,,0823.0,5.00,0.00,24.9,24.0,00.0,34.0,26.7,12.1,0000.0,0018.37,0006.80,0004.72
2022-04-04 06:56:00,,0822.9,5.00,0.00,24.9,24.0,00.0,33.9,26.7,12.1,0000.0,0018.16,0006.79,0004.73
2022-04-04 06:57:00,,0822.9,5.00,0.00,24.9,24.0,00.0,33.9,26.7,12.0,0000.0,0018.57,0006.76,0004.73
2022-04-04 06:58:00,,0822.9,5.00,0.00,24.9,24.0,00.0,33.9,26.7,12.0,0000.0,0018.72,0006.82,0004.74
2022-04-04 06:59:00,,0822.8,4.99,0.00,24.9,24.0,00.0,33.9,26.7,12.0,0000.0,0018.65,0006.85,0004.75
